Flag for US Virgin Islands Weather past 2 weeks in Christiansted, US Virgin Islands

Now
86 °F

Scattered clouds.


Feels Like: 93 °F
Forecast: 74 / 83 °F
Wind: 10 mph from Southeast

Location: Christiansted / Henry E. Rohlsen Airport - Saint Croix


UV Index: 10 (Very high)

Visibility: 10 mi


Pressure: 30.04 "Hg

Humidity: 65%

Dew point: 73 °F

Location of ChristianstedLocation

Historic Weather in Christiansted

°F

Christiansted temperature yesterday

Maximum temperature yesterday: 86 °F (at 11:36 AM)
Minimum temperature yesterday: 76 °F (at 11:53 PM)
Average temperature yesterday: 82 °F

Past Weeks' High & Low Weather Summary

 TemperatureHumidityPressure
High87 °F (Apr 18, 11:53 AM)94% (Apr 19, 2:28 PM)30.14 "Hg (Apr 19, 2:28 PM)
Low70 °F (Apr 12, 4:53 AM)50% (Apr 12, 11:53 AM)29.90 "Hg (Apr 15, 3:53 PM)
Average80 °F71%30.01 "Hg
* Reported Apr 9 10:00 AM — Apr 24 10:53 AM, Christiansted, Weather by CustomWeather, © 2014

Note: Actual official high and low records may vary slightly from our data, if they occured in-between our weather recording intervals... More about our weather records

Advertising

Historic Weather Conditions — Data for Previous 24 hours

 ConditionsComfort  
Time TempWeatherWind HumidityBarometerVisibility
10:53 AM
Apr 24
86 °FScattered clouds.10 mph65%30.04 "Hg10 mi
9:53 AM85 °FPassing clouds.9 mph68%30.03 "Hg10 mi
8:53 AM84 °FPassing clouds.12 mph67%30.03 "Hg10 mi
7:53 AM82 °FPassing clouds.8 mph72%30.03 "Hg10 mi
6:53 AMN/ASunny.3 mphN/A30.01 "Hg10 mi
5:53 AMN/AClear.5 mphN/A29.99 "Hg10 mi
4:53 AMN/AClear.3 mphN/A29.98 "Hg10 mi
3:53 AMN/AClear.No windN/A29.98 "Hg10 mi
2:53 AMN/AClear.5 mphN/A29.98 "Hg10 mi
1:53 AM75 °FClear.5 mph88%29.99 "Hg10 mi
12:53 AM76 °FPassing clouds.3 mph85%30.00 "Hg10 mi
11:53 PM
Apr 23
76 °FPassing clouds.3 mph85%30.01 "Hg10 mi
11:09 PM77 °FPassing clouds.3 mph83%30.02 "Hg10 mi
10:53 PM77 °FPartly cloudy.No wind85%30.01 "Hg10 mi
10:36 PM77 °FPartly cloudy.3 mph83%30.02 "Hg10 mi
9:53 PM77 °FPassing clouds.3 mph82%30.01 "Hg10 mi
8:53 PM79 °FPassing clouds.3 mph79%29.98 "Hg10 mi
7:53 PM80 °FClear.3 mph76%29.96 "Hg10 mi
6:53 PM81 °FPassing clouds.5 mph74%29.96 "Hg10 mi
5:53 PM83 °FPassing clouds.8 mph70%29.94 "Hg10 mi
4:53 PM85 °FPassing clouds.7 mph68%29.94 "Hg10 mi
3:53 PM85 °FPassing clouds.9 mph65%29.93 "Hg10 mi
2:53 PM85 °FPassing clouds.9 mph68%29.94 "Hg10 mi
1:53 PM85 °FScattered clouds.7 mph68%29.97 "Hg10 mi
Weather by CustomWeather, © 2014

See weather overview